Showing default

MORDOVIA-IOT, 61765

Orbit data source: Space-Track

MORDOVIA-IOT, 61765 is a payload satellite owned by Saransk PT (CIS) in SSO that was launched on Mon, 04 Nov 2024 UTC via a SOYUZ-2-1B launch vehicle from the Vostochny Cosmodrome (VOSTO). Payload-class satellites include a variety of spacecraft equipped with specific instruments for various scientific and technological missions. These include communications satellites like Starlink; space stations such as the ISS; scientific satellites like the Hubble; Earth observation satellites from companies like Planet Labs, Umbra, and HawkEye 360; GPS; miniature CubeSats for education and research; and military/defense satellites.

Loading next visibility...
Identifier
61765, 2024-199AG
Orbit
SSO
Country
Flag of CISCIS
Related business
Manufacturer
Yugo-Zapad. GU
Mission
Operational Amateur Technology
Bus & Motor
CUBESAT 3U, Unknown motor
Mass
5 kg wet, 5 kg dry
Launch date (UTC)
2024-11-04 (10 months ago)
Launch vehicle
SOYUZ-2-1B
Launch site
Vostochny Cosmodrome (VOSTO)
Object type
Payload
Rocket body
Debris
Shape & HBR
Box, 0.1 m
Radar Cross Section
0.035 m², Small (<0.1 m²)

Expand to show TLE details & history
Last TLE update: 14 hours ago

TLE from 14 hours ago
0 MORDOVIA-IOT
1 61765U 24199AG  25260.25245509  .00041961  00000-0  76522-3 0  9993
2 61765  97.3350 131.4317 0009259 155.7137 204.4552 15.49288133 92421
Epoch: 2025-09-17T06:03Z
TLE epoch observation values (Epoch: 2025-09-17T06:03:32.119Z)
Latitude
-0.00008°
Longitude
44.11681°
Altitude
427.67 km
Speed
7.652 km/s
True Right ascension
08h 45m 43s
True Declination
0° 00' 00"
Sunlit
Object was in daylight at epoch
Visualization orbit readout
Latitude
Unknown
Longitude
Unknown
Altitude
Unknown
Speed
Unknown
Apparent Right ascension
Unknown
Apparent Declination
Unknown
Sunlit
N/A
Visualization observer readout
Local Sidereal Time
13:10:16
Azimuth
Unknown
Elevation
Unknown
Doppler factor
Unknown
Orbital elements
Apogee altitude
422.022 km
Perigee altitude
409.441 km
Semi-major axis
6,793.868 km
Eccentricity
0.00093
Inclination
97.335°
RAAN
131.4317°
Arg. of periapsis
155.7137°
True anomaly
204.41132°
Mean anomaly
204.4552°
Eccentric anomaly
204.43326°
Mean motion
3.87585 °/min
Orbital period
92.88 mins
BSTAR
0.00076522
Loading maneuver chart data...
Computing Atmospheric mass density...
Loading historical data...
Loading historical data...
Loading historical data...
Loading historical data...
Loading historical data...
Loading historical data...
Loading historical data...

Documentation

Showing up to 5 results
|